Location: Atlantic Beach
(40.5890°N, 73.7290°W)
Time: 13:42:31
(UTC+00:00)

Cosmos 2058 - Pass Details

Date: 29 October 2020
Orbit: 562 x 583 km, 82.5° (Epoch: 01 December)

Event Time Altitude Azimuth Distance (km) Brightness Sun altitude
Rises 22:19:38 0° 10° (N) 2,762 6.2 -5.4°
Reaches altitude 10° 22:22:31 10° 32° (NNE) 1,861 5.1 -6.0°
Maximum altitude 22:25:08 16° 72° (ENE) 1,493 4.4 -6.5°
Drops below altitude 10° 22:27:45 10° 112° (ESE) 1,856 5.0 -6.9°
Sets 22:30:37 0° 134° (SE) 2,749 6.0 -7.5°
